Location: Ripley
(48.3812°N, 115.4473°W)
Time: 05:10:53
(UTC+00:00)

DMSP B5D1-1 - Visible Passes

Search period start: 03 December 2023 00:00
Search period end: 13 December 2023 00:00
Orbit: 789 x 816 km, 98.3° (Epoch: 02 December)

Date Brightness Start Highest point End Pass type
(mag) Time Alt. Az. Time Alt. Az. Time Alt. Az.
03 Dec 4.9 01:51:10 13° NNE 01:55:57 76° ESE 02:01:10 10° S visible
03 Dec 7.4 03:32:10 12° NNW 03:35:09 19° WNW 03:38:43 10° W visible
03 Dec 7.0 11:35:46 10° ESE 11:40:01 26° ENE 11:42:42 17° NNE visible
03 Dec 5.2 13:14:22 10° S 13:19:30 53° W 13:23:40 15° NNW visible
04 Dec 5.3 01:25:02 10° NNE 01:29:58 46° E 01:34:58 10° S visible
04 Dec 6.8 03:06:02 14° N 03:09:33 29° WNW 03:13:58 10° WSW visible
04 Dec 7.6 11:11:09 10° E 11:14:26 17° ENE 11:16:17 14° NNE visible
04 Dec 4.9 12:48:17 10° SSE 12:53:33 86° WSW 12:57:15 20° NNW visible
04 Dec 6.8 14:31:46 10° WSW 14:34:06 13° W 14:36:28 10° WNW visible
05 Dec 5.9 00:59:24 10° NE 01:03:54 28° E 01:08:22 10° SSE visible
05 Dec 6.0 02:39:52 15° N 02:43:51 45° WNW 02:48:46 10° SW visible
05 Dec 7.9 10:47:32 10° ENE 10:48:57 11° NE 10:49:52 11° NE visible
05 Dec 5.5 12:22:33 10° SSE 12:27:41 60° ENE 12:30:50 23° N visible
05 Dec 6.3 14:03:55 10° SW 14:07:52 21° W 14:11:49 10° NW visible
06 Dec 6.5 00:34:15 10° NE 00:37:43 18° E 00:41:10 10° SE visible
06 Dec 5.2 02:13:43 15° N 02:18:02 72° WNW 02:23:14 10° SSW visible
06 Dec 7.8 03:54:42 10° NNW 03:56:55 13° NW 03:59:15 10° W visible
06 Dec 6.4 11:57:08 10° SE 12:01:56 38° ENE 12:04:27 24° NNE visible
06 Dec 5.7 13:36:59 10° SSW 13:41:44 34° W 13:45:25 15° NW visible
07 Dec 4.9 01:47:33 14° NNE 01:52:09 72° ESE 01:57:21 10° S visible
07 Dec 7.4 03:28:32 13° NNW 03:31:24 20° WNW 03:35:05 10° WSW visible
07 Dec 7.1 11:32:07 10° ESE 11:36:15 25° ENE 11:38:04 20° NNE visible
07 Dec 5.1 13:10:33 10° S 13:15:41 56° W 13:19:01 22° NNW visible
08 Dec 5.4 01:21:22 11° NNE 01:26:09 43° E 01:31:07 10° S visible
08 Dec 6.7 03:02:21 15° N 03:05:47 30° WNW 03:10:16 10° WSW visible
08 Dec 7.6 11:07:33 10° E 11:10:40 16° NE 11:11:40 15° NE visible
08 Dec 5.0 12:44:30 10° SSE 12:49:45 90° ENE 12:52:39 28° NNW visible
08 Dec 6.7 14:27:39 10° WSW 14:30:15 14° W 14:32:52 10° NW visible
09 Dec 6.0 00:55:39 10° NE 01:00:03 27° E 01:04:27 10° SSE visible
09 Dec 5.9 02:36:10 16° N 02:40:03 47° WNW 02:45:02 10° SW visible
09 Dec 8.0 10:44:19 10° ENE 10:45:11 10° NE 10:45:18 10° NE visible
09 Dec 5.6 12:18:47 10° SSE 12:23:53 56° ENE 12:26:16 30° N visible
09 Dec 6.2 13:59:57 10° SW 14:04:01 23° W 14:07:14 13° NW visible
10 Dec 6.6 00:30:35 10° NE 00:33:51 17° E 00:37:08 10° SE visible
10 Dec 5.1 02:09:58 16° N 02:14:14 76° WNW 02:19:27 10° SSW visible
10 Dec 7.8 03:50:57 11° NNW 03:53:10 14° NW 03:55:43 10° W visible
10 Dec 6.4 11:53:25 10° SE 11:58:08 35° ENE 11:59:53 28° NNE visible
10 Dec 5.6 13:33:06 10° SSW 13:37:53 36° W 13:40:52 20° NW visible
11 Dec 5.0 01:43:45 14° NNE 01:48:19 67° ESE 01:53:31 10° S visible
11 Dec 7.3 03:24:44 14° NNW 03:27:37 21° WNW 03:31:26 10° WSW visible
11 Dec 7.1 11:28:26 10° ESE 11:32:27 23° ENE 11:33:32 22° NE visible
11 Dec 5.0 13:06:42 10° S 13:11:51 60° W 13:14:30 28° NNW visible
12 Dec 5.5 01:17:32 11° NNE 01:22:18 41° E 01:27:14 10° SSE visible
12 Dec 6.6 02:58:31 16° N 03:01:58 32° WNW 03:06:33 10° SW visible
12 Dec 7.6 11:03:57 10° E 11:06:54 15° NE 11:07:10 15° NE visible
12 Dec 5.0 12:40:41 10° SSE 12:45:55 85° ENE 12:48:08 36° NNW visible
12 Dec 6.7 14:23:32 10° WSW 14:26:23 15° W 14:29:07 10° NW visible
